When you browse on this site, cookies collect data to enhance your experience and personalize the content and advertising you see.
Visit our Privacy Policy to learn more. By continuing to use the site, you agree to this use of cookies and data.
  • In United Kingdom
  • List of Countries
  • For 7 days
  • Water Temperature
  • Weather Map
  • Weather Widgets
  • user-avatar
    Login

    Hourly Weather Stirling

    Today, 5 June, Friday

    Time Temperature Precipitation Wind Pressure Humidity
    00:00 +8°C° 0.4 mm 1 mps 748 mmHg 92%
    01:00 +7°C° 0.1 mm 1 mps 748 mmHg 90%
    02:00 +5°C° 0.1 mm 2 mps 747 mmHg 89%
    03:00 +4°C° 0.1 mm 2 mps 747 mmHg 88%
    04:00 +4°C° 0 mm 3 mps 747 mmHg 87%
    05:00 +5°C° 0 mm 3 mps 746 mmHg 86%
    06:00 +5°C° 0 mm 3 mps 746 mmHg 85%
    07:00 +6°C° 0 mm 4 mps 746 mmHg 78%
    08:00 +8°C° 0 mm 4 mps 746 mmHg 71%
    09:00 +9°C° 0 mm 5 mps 745 mmHg 64%
    10:00 +9°C° 0.1 mm 6 mps 745 mmHg 62%
    11:00 +10°C° 0.1 mm 7 mps 744 mmHg 60%
    12:00 +11°C° 0.1 mm 8 mps 744 mmHg 58%
    13:00 +10°C° 0.1 mm 8 mps 744 mmHg 57%
    14:00 +10°C° 0.1 mm 9 mps 743 mmHg 57%
    15:00 +10°C° 0.1 mm 9 mps 743 mmHg 57%
    16:00 +8°C° 0.1 mm 9 mps 742 mmHg 64%
    17:00 +7°C° 0.1 mm 8 mps 741 mmHg 71%
    18:00 +6°C° 0.1 mm 8 mps 741 mmHg 79%
    19:00 +6°C° 0.2 mm 7 mps 741 mmHg 81%
    20:00 +6°C° 0.2 mm 7 mps 740 mmHg 83%
    21:00 +7°C° 0.2 mm 6 mps 740 mmHg 86%
    22:00 +7°C° 0.2 mm 5 mps 740 mmHg 88%
    23:00 +8°C° 0.2 mm 4 mps 739 mmHg 89%

    Tomorrow, 6 June, Saturday

    Time Temperature Precipitation Wind Pressure Humidity
    00:00 +8°C° 0.2 mm 4 mps 739 mmHg 91%
    01:00 +8°C° 0.1 mm 4 mps 739 mmHg 92%
    02:00 +9°C° 0.1 mm 3 mps 740 mmHg 92%
    03:00 +9°C° 0.1 mm 3 mps 740 mmHg 93%
    04:00 +9°C° 0.1 mm 3 mps 741 mmHg 91%
    05:00 +10°C° 0.1 mm 3 mps 741 mmHg 89%
    06:00 +10°C° 0.1 mm 3 mps 742 mmHg 88%
    07:00 +11°C° 0 mm 4 mps 743 mmHg 79%
    08:00 +13°C° 0 mm 5 mps 744 mmHg 71%
    09:00 +14°C° 0 mm 6 mps 745 mmHg 62%
    10:00 +14°C° 0.1 mm 5 mps 745 mmHg 61%
    11:00 +15°C° 0.1 mm 5 mps 746 mmHg 59%
    12:00 +17°C° 0.1 mm 4 mps 746 mmHg 58%
    13:00 +17°C° 0.1 mm 4 mps 747 mmHg 60%
    14:00 +17°C° 0.1 mm 3 mps 747 mmHg 61%
    15:00 +17°C° 0.1 mm 2 mps 747 mmHg 63%
    16:00 +16°C° 0.3 mm 2 mps 748 mmHg 68%
    17:00 +16°C° 0.3 mm 2 mps 748 mmHg 73%
    18:00 +16°C° 0.3 mm 2 mps 748 mmHg 78%
    19:00 +14°C° 0.5 mm 1 mps 749 mmHg 83%
    20:00 +13°C° 0.5 mm 1 mps 749 mmHg 87%
    21:00 +12°C° 0.5 mm 1 mps 750 mmHg 92%
    22:00 +12°C° 0 mm 1 mps 750 mmHg 92%
    23:00 +10°C° 0 mm 2 mps 750 mmHg 93%

    Day after tomorrow, 7 June, Sunday

    Time Temperature Precipitation Wind Pressure Humidity
    00:00 +10°C° 0 mm 2 mps 750 mmHg 93%
    01:00 +10°C° 0 mm 2 mps 751 mmHg 93%
    02:00 +10°C° 0 mm 2 mps 751 mmHg 93%
    03:00 +10°C° 0 mm 2 mps 751 mmHg 93%
    04:00 +10°C° 0 mm 2 mps 752 mmHg 92%
    05:00 +11°C° 0 mm 3 mps 752 mmHg 90%
    06:00 +11°C° 0 mm 3 mps 753 mmHg 89%
    07:00 +12°C° 0 mm 3 mps 754 mmHg 82%
    08:00 +13°C° 0 mm 4 mps 754 mmHg 74%
    09:00 +14°C° 0 mm 5 mps 755 mmHg 66%
    10:00 +15°C° 0 mm 5 mps 756 mmHg 64%
    11:00 +15°C° 0 mm 5 mps 756 mmHg 63%
    12:00 +16°C° 0 mm 5 mps 757 mmHg 61%
    13:00 +16°C° 0 mm 5 mps 757 mmHg 60%
    14:00 +15°C° 0 mm 5 mps 758 mmHg 60%
    15:00 +15°C° 0 mm 5 mps 758 mmHg 59%
    16:00 +15°C° 0 mm 4 mps 758 mmHg 62%
    17:00 +14°C° 0 mm 4 mps 759 mmHg 64%
    18:00 +14°C° 0 mm 3 mps 759 mmHg 66%
    19:00 +12°C° 0 mm 3 mps 760 mmHg 68%
    20:00 +10°C° 0 mm 3 mps 760 mmHg 71%
    21:00 +9°C° 0 mm 3 mps 761 mmHg 73%
    22:00 +8°C° 0 mm 2 mps 761 mmHg 75%
    23:00 +7°C° 0 mm 2 mps 761 mmHg 77%

    8 June, Monday

    Time Temperature Precipitation Wind Pressure Humidity
    00:00 +5°C° 0 mm 2 mps 762 mmHg 79%
    01:00 +6°C° 0 mm 1 mps 762 mmHg 80%
    02:00 +6°C° 0 mm 1 mps 762 mmHg 80%
    03:00 +5°C° 0 mm 1 mps 762 mmHg 81%
    04:00 +6°C° 0 mm 1 mps 762 mmHg 78%
    05:00 +7°C° 0 mm 1 mps 763 mmHg 74%
    06:00 +8°C° 0 mm 1 mps 763 mmHg 71%
    07:00 +9°C° 0 mm 1 mps 763 mmHg 66%
    08:00 +10°C° 0 mm 1 mps 764 mmHg 62%
    09:00 +12°C° 0 mm 1 mps 764 mmHg 58%
    10:00 +13°C° 0 mm 1 mps 764 mmHg 56%
    11:00 +13°C° 0 mm 1 mps 764 mmHg 54%
    12:00 +14°C° 0 mm 1 mps 764 mmHg 52%
    13:00 +15°C° 0 mm 1 mps 764 mmHg 53%
    14:00 +15°C° 0 mm 2 mps 764 mmHg 54%
    15:00 +15°C° 0 mm 2 mps 764 mmHg 54%
    16:00 +15°C° 0 mm 2 mps 764 mmHg 59%
    17:00 +14°C° 0 mm 2 mps 764 mmHg 63%
    18:00 +13°C° 0 mm 2 mps 764 mmHg 68%
    19:00 +12°C° 0 mm 2 mps 765 mmHg 70%
    20:00 +10°C° 0 mm 2 mps 765 mmHg 73%
    21:00 +9°C° 0 mm 2 mps 765 mmHg 76%
    22:00 +9°C° 0 mm 2 mps 765 mmHg 77%
    23:00 +10°C° 0 mm 1 mps 765 mmHg 77%

    9 June, Tuesday

    Time Temperature Precipitation Wind Pressure Humidity
    00:00 +9°C° 0 mm 1 mps 765 mmHg 78%
    01:00 +9°C° 0 mm 1 mps 765 mmHg 79%
    02:00 +9°C° 0 mm 1 mps 765 mmHg 80%
    03:00 +9°C° 0 mm 1 mps 765 mmHg 80%
    04:00 +9°C° 0 mm 1 mps 765 mmHg 79%
    05:00 +9°C° 0 mm 1 mps 765 mmHg 78%
    06:00 +9°C° 0 mm 0 mps 766 mmHg 77%
    07:00 +11°C° 0 mm 1 mps 766 mmHg 73%
    08:00 +13°C° 0 mm 1 mps 766 mmHg 70%
    09:00 +14°C° 0 mm 1 mps 766 mmHg 67%
    10:00 +14°C° 0 mm 1 mps 766 mmHg 66%
    11:00 +14°C° 0 mm 1 mps 766 mmHg 65%
    12:00 +15°C° 0 mm 1 mps 766 mmHg 64%
    13:00 +15°C° 0 mm 1 mps 766 mmHg 64%
    14:00 +15°C° 0 mm 2 mps 766 mmHg 64%
    15:00 +15°C° 0 mm 2 mps 766 mmHg 65%
    16:00 +15°C° 0 mm 2 mps 766 mmHg 65%
    17:00 +15°C° 0 mm 2 mps 766 mmHg 65%
    18:00 +15°C° 0 mm 2 mps 766 mmHg 66%
    19:00 +13°C° 0 mm 1 mps 766 mmHg 72%
    20:00 +12°C° 0 mm 1 mps 766 mmHg 79%
    21:00 +10°C° 0 mm 1 mps 767 mmHg 86%
    22:00 +9°C° 0 mm 1 mps 767 mmHg 87%
    23:00 +7°C° 0 mm 0 mps 767 mmHg 88%

    10 June, Wednesday

    Time Temperature Precipitation Wind Pressure Humidity
    00:00 +7°C° 0 mm 0 mps 767 mmHg 90%
    01:00 +6°C° 0 mm 0 mps 767 mmHg 90%
    02:00 +6°C° 0 mm 0 mps 767 mmHg 91%
    03:00 +6°C° 0 mm 0 mps 767 mmHg 91%
    04:00 +7°C° 0 mm 0 mps 767 mmHg 88%
    05:00 +8°C° 0 mm 0 mps 767 mmHg 85%
    06:00 +10°C° 0 mm 1 mps 767 mmHg 82%
    07:00 +12°C° 0 mm 1 mps 767 mmHg 76%
    08:00 +14°C° 0 mm 2 mps 767 mmHg 70%
    09:00 +15°C° 0 mm 2 mps 767 mmHg 64%
    10:00 +16°C° 0 mm 2 mps 767 mmHg 62%
    11:00 +17°C° 0 mm 3 mps 767 mmHg 61%
    12:00 +18°C° 0 mm 3 mps 767 mmHg 59%
    13:00 +18°C° 0 mm 3 mps 766 mmHg 59%
    14:00 +19°C° 0 mm 4 mps 766 mmHg 59%
    15:00 +19°C° 0 mm 4 mps 766 mmHg 59%
    16:00 +18°C° 0 mm 4 mps 766 mmHg 62%
    17:00 +18°C° 0 mm 3 mps 766 mmHg 66%
    18:00 +17°C° 0 mm 3 mps 766 mmHg 69%
    19:00 +16°C° 0 mm 3 mps 766 mmHg 74%
    20:00 +15°C° 0 mm 2 mps 767 mmHg 79%
    21:00 +14°C° 0 mm 2 mps 767 mmHg 84%
    22:00 +13°C° 0.1 mm 2 mps 767 mmHg 86%
    23:00 +13°C° 0.1 mm 2 mps 766 mmHg 89%
    Show more